This demonstration page uses our WeatherBlox Daily Observations layout. Learn more.

Left ArrowRight Arrow

39.01783, -85.05884

Hourly Observations for February 19, 2016

Temp ( °F °C ) Dew Point ( °F °C ) Humidity (%) Winds ( mph kmh ) Pressure ( in mb ) Visibility ( mi km ) Precip ( " mm )
12:52 am 00:52 Mostly Cloudy 39 3.9 29 -1.7 67 67 SSE 14 22 30.20 1023 10 16 N/A
1:52 am 01:52 Mostly Cloudy 39 3.9 29 -1.7 67 67 SSE 13 20 30.18 1022 10 16 N/A
2:52 am 02:52 Partly Cloudy 39 3.9 29 -1.7 67 67 SSE 13 20 30.16 1022 10 16 N/A
3:52 am 03:52 Mostly Clear 39 3.9 29 -1.7 67 67 SSE 15 24 30.14 1021 10 16 N/A
4:52 am 04:52 Clear 39 3.9 29 -1.7 67 67 S 15 24 30.12 1020 10 16 N/A
5:52 am 05:52 Clear 40 4.4 29 -1.7 65 65 S 16 26 30.10 1019 10 16 N/A
6:52 am 06:52 Clear 46 7.8 30 -1.1 54 54 S 23 37 30.08 1019 10 16 N/A
7:52 am 07:52 Mostly Cloudy 46 7.8 31 -0.6 56 56 S 22 35 30.06 1018 10 16 N/A
8:52 am 08:52 Mostly Cloudy 49 9.4 32 undefined 52 52 S 21 33 30.04 1017 10 16 N/A
9:52 am 09:52 Partly Cloudy 52 11.1 33 0.6 49 49 SSW 21 33 30.05 1018 10 16 N/A
10:52 am 10:52 Mostly Sunny 57 13.9 34 1.1 42 42 SSW 28 44 29.99 1016 10 16 N/A
11:52 am 11:52 Partly Cloudy 60 15.6 35 1.7 39 39 SSW 21 33 29.97 1015 10 16 N/A
12:52 pm 12:52 Partly Cloudy 62 16.7 34 1.1 35 35 SSW 21 33 29.92 1013 10 16 N/A
1:52 pm 13:52 Mostly Cloudy 64 17.8 34 1.1 33 33 SW 30 48 29.89 1012 10 16 N/A
2:52 pm 14:52 Mostly Cloudy 65 18.3 35 1.7 33 33 SW 17 28 29.87 1011 10 16 N/A
3:52 pm 15:52 Partly Cloudy 64 17.8 35 1.7 34 34 SW 20 31 29.85 1011 10 16 N/A
4:52 pm 16:52 Partly Cloudy 64 17.8 37 2.8 37 37 SW 20 31 29.86 1011 10 16 N/A
5:52 pm 17:52 Mostly Cloudy 62 16.7 40 4.4 44 44 SW 14 22 29.89 1012 10 16 N/A
6:52 pm 18:52 Mostly Cloudy 61 16.1 41 5 48 48 SW 15 24 29.92 1013 10 16 N/A
7:52 pm 19:52 Mostly Cloudy 60 15.6 43 6.1 53 53 SW 14 22 29.93 1013 10 16 N/A
8:52 pm 20:52 Mostly Cloudy 60 15.6 45 7.2 58 58 SW 15 24 29.96 1014 10 16 N/A
9:52 pm 21:52 Mostly Cloudy 59 15 48 8.9 67 67 SW 16 26 29.98 1015 10 16 N/A
10:52 pm 22:52 Mostly Cloudy 58 14.4 48 8.9 70 70 WSW 12 19 30.00 1016 10 16 N/A
11:52 pm 23:52 Partly Cloudy 57 13.9 49 9.4 74 74 WSW 14 22 30.01 1016 10 16 N/A

Powered by AerisWeather